EW6576 Weather Reports


Display with metric or nautical units.
time (UTC)temp
F
wind
direction
speed
MPH
gust
MPH
rain 1hr
in
rain 24hr
in
rain mn
in
humidity
%
barometer
mb
20260510005655 69 89 6.0 8.0 0.00 0.00 0.00 71 1011.8
20260510005151 70 184 4.0 6.0 0.00 0.00 0.00 70 1012.0
20260510004650 70 166 4.0 6.0 0.00 0.00 0.00 70 1011.9
20260510004148 71 214 2.0 5.0 0.00 0.00 0.00 68 1012.0
20260510003645 71 131 5.0 7.0 0.00 0.00 0.00 67 1012.0
20260510003140 71 147 5.0 8.0 0.00 0.00 0.00 66 1011.6
20260510002640 72 115 7.0 10.0 0.00 0.00 0.00 65 1011.9
20260510002138 72 125 2.0 2.0 0.00 0.00 0.00 64 1011.6
20260510001634 73 101 4.0 5.0 0.00 0.00 0.00 64 1011.9
20260510001133 73 138 7.0 8.0 0.00 0.00 0.00 62 1011.5
20260510000633 73 87 3.0 5.0 0.00 0.00 0.00 62 1011.6
20260510000131 74 353 4.0 5.0 0.00 0.00 0.00 61 1011.3
20260509235627 74 132 3.0 5.0 0.00 0.00 0.00 60 1011.5
20260509235124 74 179 4.0 6.0 0.00 0.00 0.00 60 1011.4
20260509234619 73 101 6.0 8.0 0.00 0.00 0.00 60 1011.5
20260509234118 74 91 4.0 6.0 0.00 0.00 0.00 61 1011.5
20260509233615 74 125 4.0 6.0 0.00 0.00 0.00 61 1011.6
20260509233112 73 97 3.0 3.0 0.00 0.00 0.00 60 1011.6
20260509232608 73 124 4.0 5.0 0.00 0.00 0.00 62 1011.6
20260509232106 74 125 6.0 8.0 0.00 0.00 0.00 59 1011.8
20260509231602 75 102 5.0 7.0 0.00 0.00 0.00 60 1011.7
20260509231100 74 110 0.0 0.0 0.00 0.00 0.00 61 1011.7
20260509230556 75 23 0.0 0.0 0.00 0.00 0.00 58 1011.7
20260509230053 74 93 3.0 5.0 0.00 0.00 0.00 62 1011.6
20260509225549 74 130 3.0 5.0 0.00 0.00 0.00 62 1011.8
20260509225044 74 147 2.0 3.0 0.00 0.00 0.00 61 1011.7
20260509224540 75 141 0.0 1.0 0.00 0.00 0.00 61 1012.0
20260509224037 75 76 2.0 2.0 0.00 0.00 0.00 61 1011.9
20260509223534 74 127 4.0 5.0 0.00 0.00 0.00 62 1012.0
20260509223032 75 145 1.0 1.0 0.00 0.00 0.00 60 1011.9
20260509222528 74 182 3.0 5.0 0.00 0.00 0.00 61 1012.1
20260509222024 74 138 1.0 1.0 0.00 0.00 0.00 61 1012.0
20260509221520 75 137 8.0 10.0 0.00 0.00 0.00 60 1011.9
20260509221016 75 196 1.0 2.0 0.00 0.00 0.00 61 1012.0
20260509220512 74 107 3.0 5.0 0.00 0.00 0.00 63 1012.4
20260509220008 75 103 4.0 5.0 0.00 0.00 0.00 61 1012.2
20260509215504 75 112 8.0 10.0 0.00 0.00 0.00 61 1012.2
20260509215001 75 83 2.0 3.0 0.00 0.00 0.00 61 1012.2
20260509214458 74 8 3.0 3.0 0.00 0.00 0.00 62 1012.4
20260509213955 74 187 3.0 5.0 0.00 0.00 0.00 62 1012.1
20260509213451 75 81 7.0 8.0 0.00 0.00 0.00 61 1012.2
20260509212948 75 134 6.0 8.0 0.00 0.00 0.00 61 1012.1
20260509212446 74 85 5.0 7.0 0.00 0.00 0.00 62 1012.2
20260509211942 75 127 7.0 9.0 0.00 0.00 0.00 61 1012.3
20260509211437 76 97 5.0 8.0 0.00 0.00 0.00 60 1012.4
20260509210934 76 201 2.0 3.0 0.00 0.00 0.00 60 1012.2
20260509210431 75 72 3.0 3.0 0.00 0.00 0.00 61 1012.6
20260509205927 74 119 4.0 5.0 0.00 0.00 0.00 63 1012.4
20260509205421 74 72 7.0 8.0 0.00 0.00 0.00 63 1012.4
20260509204917 75 129 5.0 6.0 0.00 0.00 0.00 62 1012.5
20260509204414 76 83 3.0 5.0 0.00 0.00 0.00 60 1012.4
20260509203911 76 192 4.0 6.0 0.00 0.00 0.00 60 1012.6
20260509203406 76 71 2.0 2.0 0.00 0.00 0.00 62 1012.6
20260509202904 75 120 6.0 8.0 0.00 0.00 0.00 62 1012.6
20260509202400 75 120 3.0 5.0 0.00 0.00 0.00 64 1012.7
20260509201855 75 102 3.0 3.0 0.00 0.00 0.00 63 1012.6
20260509201350 76 84 9.0 11.0 0.00 0.00 0.00 61 1012.5
20260509200848 76 91 7.0 9.0 0.00 0.00 0.00 62 1012.7
20260509200342 77 116 7.0 8.0 0.00 0.00 0.00 61 1012.5
20260509195840 77 116 9.0 9.0 0.00 0.00 0.00 61 1012.6
20260509195340 77 100 4.0 5.0 0.00 0.00 0.00 62 1012.7
20260509194839 77 96 7.0 9.0 0.00 0.00 0.00 60 1012.5
20260509194336 78 84 3.0 5.0 0.00 0.00 0.00 59 1012.6
20260509193832 78 153 4.0 7.0 0.00 0.00 0.00 60 1012.5
20260509193327 78 97 9.0 9.0 0.00 0.00 0.00 60 1012.6
20260509192823 79 154 4.0 7.0 0.00 0.00 0.00 59 1012.6
20260509192319 79 183 4.0 6.0 0.00 0.00 0.00 59 1012.5
20260509191814 78 100 4.0 5.0 0.00 0.00 0.00 59 1012.5
20260509191311 78 213 2.0 2.0 0.00 0.00 0.00 59 1012.7
20260509190806 79 39 3.0 3.0 0.00 0.00 0.00 58 1012.6
20260509190304 80 97 3.0 3.0 0.00 0.00 0.00 57 1012.7
20260509185801 79 53 3.0 5.0 0.00 0.00 0.00 57 1012.8
20260509185257 79 55 6.0 7.0 0.00 0.00 0.00 57 1012.8
20260509184755 79 87 1.0 2.0 0.00 0.00 0.00 58 1012.9
20260509184252 79 132 5.0 7.0 0.00 0.00 0.00 59 1012.8
20260509183748 79 111 3.0 3.0 0.00 0.00 0.00 58 1013.0
20260509183244 78 86 3.0 5.0 0.00 0.00 0.00 58 1013.1
20260509182739 77 29 3.0 3.0 0.00 0.00 0.00 59 1012.9
20260509182237 78 83 1.0 2.0 0.00 0.00 0.00 60 1013.1
20260509181734 78 130 1.0 2.0 0.00 0.00 0.00 60 1013.0
20260509181232 77 97 4.0 5.0 0.00 0.00 0.00 61 1013.1
20260509180729 77 126 1.0 1.0 0.00 0.00 0.00 61 1013.1
20260509180225 76 351 1.0 2.0 0.00 0.00 0.00 62 1013.2
20260509175721 76 54 1.0 2.0 0.00 0.00 0.00 62 1013.1
20260509175218 75 170 0.0 1.0 0.00 0.00 0.00 64 1013.2
20260509174714 74 302 3.0 5.0 0.00 0.00 0.00 64 1013.3
20260509174209 74 55 0.0 1.0 0.00 0.00 0.00 66 1013.4
20260509173706 74 329 1.0 1.0 0.00 0.00 0.00 65 1013.4
20260509173201 73 303 1.0 1.0 0.00 0.00 0.00 67 1013.5
20260509172658 73 356 1.0 2.0 0.00 0.00 0.00 68 1013.4
20260509172154 73 345 0.0 1.0 0.00 0.00 0.00 68 1013.6
20260509171649 72 228 1.0 1.0 0.00 0.00 0.00 70 1013.4
20260509171146 70 31 2.0 3.0 0.00 0.00 0.00 71 1013.6
20260509170643 69 13 2.0 2.0 0.00 0.00 0.00 73 1013.3
20260509170139 70 331 3.0 3.0 0.00 0.00 0.00 74 1013.4
20260509165637 69 341 3.0 3.0 0.00 0.00 0.00 73 1013.4
20260509165133 69 93 0.0 1.0 0.00 0.00 0.00 75 1013.5
20260509164629 68 121 0.0 0.0 0.00 0.00 0.00 76 1013.5
20260509164125 68 20 1.0 1.0 0.00 0.00 0.00 77 1013.6
20260509163623 67 121 1.0 2.0 0.00 0.00 0.00 77 1013.8
20260509163118 66 130 1.0 1.0 0.00 0.00 0.00 79 1013.8
20260509162616 65 124 0.0 0.0 0.00 0.00 0.00 81 1013.9
20260509162112 65 216 1.0 2.0 0.00 0.00 0.00 81 1014.0
20260509161608 64 13 2.0 2.0 0.00 0.00 0.00 81 1013.9
20260509161108 64 99 1.0 2.0 0.00 0.00 0.00 82 1013.7
20260509160605 64 13 2.0 2.0 0.00 0.00 0.00 83 1013.8
20260509160100 62 23 1.0 1.0 0.00 0.00 0.00 87 1013.8
20260509155556 62 86 1.0 1.0 0.00 0.00 0.00 87 1013.8
20260509155052 62 28 1.0 2.0 0.00 0.00 0.00 87 1013.8
20260509154543 62 15 0.0 1.0 0.00 0.00 0.00 88 1013.9
20260509154041 61 240 1.0 2.0 0.00 0.00 0.00 89 1013.8
20260509153538 61 12 0.0 1.0 0.00 0.00 0.00 89 1013.7
20260509153035 61 201 1.0 1.0 0.00 0.00 0.00 90 1013.7
20260509152530 61 111 1.0 1.0 0.00 0.00 0.00 90 1014.0
20260509152028 61 124 1.0 1.0 0.00 0.00 0.00 90 1014.0
20260509151524 60 123 1.0 2.0 0.00 0.00 0.00 91 1013.9
20260509151022 60 97 1.0 1.0 0.00 0.00 0.00 92 1013.9
20260509150519 60 109 0.0 1.0 0.00 0.00 0.00 92 1014.0
20260509150018 60 40 2.0 2.0 0.00 0.00 0.00 92 1013.8
20260509145513 60 114 1.0 1.0 0.00 0.00 0.00 93 1014.0
20260509145008 60 88 2.0 2.0 0.00 0.00 0.00 93 1013.8
20260509144505 60 139 0.0 0.0 0.00 0.00 0.00 94 1013.7
20260509144002 60 92 2.0 2.0 0.00 0.00 0.00 94 1013.8
20260509143459 60 115 0.0 1.0 0.00 0.00 0.00 94 1013.9
20260509142956 60 103 1.0 1.0 0.00 0.00 0.00 94 1013.7
20260509142452 60 100 1.0 1.0 0.00 0.00 0.00 94 1013.7
20260509141948 60 144 1.0 1.0 0.00 0.00 0.00 94 1013.9
20260509141444 60 3 1.0 1.0 0.00 0.00 0.00 95 1013.6
20260509140942 60 219 1.0 1.0 0.00 0.00 0.00 95 1013.5
20260509140438 60 43 3.0 3.0 0.00 0.00 0.00 95 1013.6
20260509135936 60 80 0.0 1.0 0.00 0.00 0.00 95 1013.5
20260509135433 60 106 0.0 0.0 0.00 0.00 0.00 96 1013.6
20260509134930 60 62 1.0 1.0 0.00 0.00 0.00 96 1013.5
20260509134428 60 118 1.0 1.0 0.00 0.00 0.00 96 1013.6
20260509133925 60 141 0.0 0.0 0.00 0.00 0.00 96 1013.6
20260509133421 60 9 0.0 1.0 0.00 0.00 0.00 96 1013.4
20260509132920 60 112 0.0 0.0 0.00 0.00 0.00 96 1013.4
20260509132418 60 303 1.0 1.0 0.00 0.00 0.00 97 1013.5
20260509131914 60 98 0.0 0.0 0.00 0.00 0.00 97 1013.6
20260509131412 59 53 0.0 1.0 0.00 0.00 0.00 97 1013.4
20260509130908 60 128 0.0 1.0 0.00 0.00 0.00 97 1013.6
20260509130403 60 164 0.0 1.0 0.00 0.00 0.00 97 1013.4
20260509125901 59 126 0.0 1.0 0.00 0.00 0.00 97 1013.3
20260509125357 60 126 0.0 0.0 0.00 0.00 0.00 97 1013.3
20260509124853 59 116 0.0 0.0 0.00 0.00 0.00 97 1013.4
20260509124350 59 159 0.0 0.0 0.00 0.00 0.00 97 1013.4
20260509123848 59 159 0.0 0.0 0.00 0.00 0.00 97 1013.3
20260509123345 59 161 0.0 0.0 0.00 0.00 0.00 97 1013.3
20260509122841 59 152 0.0 0.0 0.00 0.00 0.00 97 1013.1
20260509122338 59 177 1.0 1.0 0.00 0.00 0.00 98 1013.2
20260509121835 59 152 0.0 0.0 0.00 0.00 0.00 98 1013.3
20260509121332 59 154 0.0 0.0 0.00 0.00 0.00 98 1013.1
20260509120830 59 119 0.0 0.0 0.00 0.00 0.00 98 1013.2
20260509120327 59 178 0.0 0.0 0.00 0.00 0.00 98 1013.2
20260509115826 59 194 0.0 0.0 0.00 0.00 0.00 98 1013.0
20260509115322 59 178 0.0 0.0 0.00 0.00 0.00 98 1013.2
20260509114820 59 178 0.0 0.0 0.00 0.00 0.00 98 1013.3
20260509114319 59 174 0.0 0.0 0.00 0.00 0.00 98 1013.2
20260509113818 59 128 0.0 0.0 0.00 0.00 0.00 98 1013.3
20260509113314 59 169 0.0 0.0 0.00 0.00 0.00 98 1013.3
20260509112811 59 139 0.0 0.0 0.00 0.00 0.00 98 1013.3
20260509112308 59 139 0.0 0.0 0.00 0.00 0.00 98 1013.2
20260509111805 59 156 0.0 0.0 0.00 0.00 0.00 98 1013.4
20260509111302 59 152 0.0 0.0 0.00 0.00 0.00 98 1013.4
20260509110759 59 153 0.0 0.0 0.00 0.00 0.00 98 1013.3
20260509110255 59 143 0.0 0.0 0.00 0.00 0.00 98 1013.1
20260509105754 59 168 0.0 0.0 0.00 0.00 0.00 98 1013.2
20260509105251 59 166 1.0 1.0 0.00 0.00 0.00 98 1013.5
20260509104748 59 153 3.0 3.0 0.00 0.00 0.00 98 1013.5
20260509104245 59 123 1.0 2.0 0.00 0.00 0.00 98 1013.4
20260509103743 59 115 2.0 2.0 0.00 0.00 0.00 98 1013.6
20260509103240 59 140 0.0 0.0 0.00 0.00 0.00 98 1013.5
20260509102738 59 143 0.0 0.0 0.00 0.00 0.00 98 1013.6
20260509102235 59 124 2.0 2.0 0.00 0.00 0.00 98 1013.5
20260509101731 59 126 1.0 1.0 0.00 0.00 0.00 98 1013.4
20260509101228 59 127 0.0 1.0 0.00 0.00 0.00 98 1013.5
20260509100725 59 132 0.0 1.0 0.00 0.00 0.00 98 1013.4
20260509100222 59 331 0.0 1.0 0.00 0.00 0.00 98 1013.7
20260509095719 59 70 2.0 2.0 0.00 0.00 0.00 98 1013.6
20260509095216 59 189 0.0 0.0 0.00 0.00 0.00 98 1013.5
20260509094713 59 129 3.0 3.0 0.00 0.00 0.00 98 1013.5
20260509094210 59 13 0.0 0.0 0.00 0.00 0.00 98 1013.3
20260509093708 59 97 1.0 1.0 0.00 0.00 0.00 98 1013.4
20260509093205 59 64 1.0 2.0 0.00 0.00 0.00 98 1013.4
20260509092703 59 177 0.0 0.0 0.00 0.00 0.00 98 1013.8
20260509092201 59 176 0.0 0.0 0.00 0.00 0.00 98 1013.7
20260509091659 59 168 1.0 1.0 0.00 0.00 0.00 98 1013.8
20260509091154 59 155 0.0 0.0 0.00 0.00 0.00 98 1013.7
20260509090653 59 115 0.0 1.0 0.00 0.00 0.00 97 1013.7
20260509090149 59 127 0.0 0.0 0.00 0.00 0.00 98 1013.6
20260509085647 59 174 0.0 0.0 0.00 0.00 0.00 98 1014.0
20260509085143 59 165 0.0 0.0 0.00 0.00 0.00 98 1014.0
20260509084641 59 160 0.0 0.0 0.00 0.00 0.00 98 1014.1
20260509084137 59 158 0.0 1.0 0.00 0.00 0.00 97 1013.9
20260509083635 59 185 0.0 0.0 0.00 0.00 0.00 97 1014.0
20260509083131 59 201 1.0 1.0 0.00 0.00 0.00 97 1014.0
20260509082628 59 149 0.0 0.0 0.00 0.00 0.00 97 1014.0
20260509082125 59 164 0.0 0.0 0.00 0.00 0.00 97 1014.2
20260509081622 59 162 0.0 0.0 0.00 0.00 0.00 97 1014.2
20260509081119 59 139 1.0 2.0 0.00 0.00 0.00 97 1014.2
20260509080618 59 127 0.0 0.0 0.00 0.00 0.00 97 1014.1
20260509080115 59 142 1.0 2.0 0.00 0.00 0.00 97 1014.2
20260509075613 59 74 1.0 1.0 0.00 0.00 0.00 97 1014.1
20260509075110 59 134 0.0 1.0 0.00 0.00 0.00 97 1014.2
20260509074607 59 102 1.0 1.0 0.00 0.00 0.00 97 1014.4
20260509074103 59 121 0.0 0.0 0.00 0.00 0.00 97 1014.3
20260509073600 59 340 0.0 0.0 0.00 0.00 0.00 97 1014.2
20260509073056 59 159 0.0 0.0 0.00 0.00 0.00 97 1014.4
20260509072553 59 159 0.0 0.0 0.00 0.00 0.00 97 1014.6
20260509072050 59 162 0.0 0.0 0.00 0.00 0.00 98 1014.5
20260509071547 59 172 0.0 0.0 0.00 0.00 0.00 98 1014.7
20260509071044 59 192 0.0 0.0 0.00 0.00 0.00 98 1014.5
20260509070542 59 197 1.0 1.0 0.00 0.00 0.00 98 1014.6
20260509070038 59 189 0.0 0.0 0.00 0.00 0.00 98 1014.4
20260509065533 59 226 1.0 1.0 0.00 0.00 0.00 98 1014.8
20260509065029 59 175 0.0 1.0 0.00 0.00 0.00 98 1014.7
20260509064527 59 140 1.0 1.0 0.00 0.00 0.00 98 1014.7
20260509064025 59 159 0.0 0.0 0.00 0.00 0.00 98 1014.7
20260509063520 59 159 0.0 0.0 0.00 0.00 0.00 98 1014.8
20260509063018 59 124 1.0 2.0 0.00 0.00 0.00 98 1014.6
20260509062515 58 182 0.0 0.0 0.00 0.00 0.00 98 1014.8
20260509062012 58 171 0.0 0.0 0.00 0.00 0.00 98 1014.8
20260509061509 58 176 1.0 1.0 0.00 0.00 0.00 98 1014.8
20260509061007 57 177 0.0 0.0 0.00 0.00 0.00 98 1014.7
20260509060504 57 136 0.0 1.0 0.00 0.00 0.00 98 1014.8
20260509055959 56 125 0.0 0.0 0.00 0.00 0.00 97 1014.7
20260509055455 57 125 0.0 1.0 0.00 0.00 0.00 97 1014.7
20260509054951 57 169 0.0 1.0 0.00 0.00 0.00 97 1014.8
20260509054448 57 177 1.0 1.0 0.00 0.00 0.00 97 1014.8
20260509053946 57 192 1.0 1.0 0.00 0.00 0.00 97 1014.6
20260509053444 57 142 0.0 0.0 0.00 0.00 0.00 97 1014.7
20260509052941 57 142 0.0 0.0 0.00 0.00 0.00 97 1014.8
20260509052438 58 143 0.0 0.0 0.00 0.00 0.00 97 1014.8
20260509051936 58 152 0.0 0.0 0.00 0.00 0.00 97 1014.9
20260509051434 58 160 0.0 0.0 0.00 0.00 0.00 96 1014.9
20260509050931 58 158 0.0 0.0 0.00 0.00 0.00 96 1015.0
20260509050427 58 160 0.0 0.0 0.00 0.00 0.00 96 1014.9
20260509045924 58 158 0.0 0.0 0.00 0.00 0.00 96 1014.7
20260509045421 58 157 0.0 0.0 0.00 0.00 0.00 96 1014.9
20260509044918 58 157 0.0 0.0 0.00 0.00 0.00 96 1014.9
20260509044416 58 166 1.0 1.0 0.00 0.00 0.00 96 1014.5
20260509043913 58 164 0.0 0.0 0.00 0.00 0.00 95 1014.8
20260509043408 58 152 0.0 0.0 0.00 0.00 0.00 95 1014.7
20260509042904 58 168 0.0 0.0 0.00 0.00 0.00 95 1014.8
20260509042401 59 166 0.0 0.0 0.00 0.00 0.00 95 1014.7
20260509041858 59 163 0.0 0.0 0.00 0.00 0.00 94 1014.6
20260509041354 59 162 0.0 0.0 0.00 0.00 0.00 94 1014.7
20260509040853 59 162 0.0 0.0 0.00 0.00 0.00 94 1014.8
20260509040351 59 175 0.0 0.0 0.00 0.00 0.00 94 1014.4
20260509035847 59 154 0.0 0.0 0.00 0.00 0.00 94 1014.5
20260509035344 60 155 0.0 0.0 0.00 0.00 0.00 94 1014.6
20260509034840 60 86 4.0 6.0 0.00 0.00 0.00 93 1014.3
20260509034338 60 127 1.0 2.0 0.00 0.00 0.00 93 1014.3
20260509033835 60 157 1.0 2.0 0.00 0.00 0.00 93 1014.3
20260509033332 60 117 2.0 3.0 0.00 0.00 0.00 92 1014.1
20260509032829 60 91 3.0 5.0 0.00 0.00 0.00 92 1014.0
20260509032326 60 120 1.0 1.0 0.00 0.00 0.00 92 1014.2
20260509031824 61 142 1.0 1.0 0.00 0.00 0.00 91 1014.1
20260509031321 61 122 1.0 3.0 0.00 0.00 0.00 91 1014.1
20260509030819 61 90 2.0 2.0 0.00 0.00 0.00 91 1014.3
20260509030316 61 158 0.0 1.0 0.00 0.00 0.00 90 1014.2
20260509025813 62 106 2.0 2.0 0.00 0.00 0.00 89 1014.0
20260509025308 62 109 1.0 1.0 0.00 0.00 0.00 89 1013.8
20260509024804 62 125 1.0 2.0 0.00 0.00 0.00 88 1014.0
20260509024300 62 108 2.0 3.0 0.00 0.00 0.00 87 1013.6
20260509023757 63 128 0.0 1.0 0.00 0.00 0.00 87 1013.8
20260509023255 63 153 2.0 2.0 0.00 0.00 0.00 86 1013.8
20260509022750 64 169 2.0 2.0 0.00 0.00 0.00 85 1013.7
20260509022249 64 156 1.0 2.0 0.00 0.00 0.00 84 1013.5
20260509021745 64 136 1.0 1.0 0.00 0.00 0.00 83 1013.4
20260509021242 65 96 4.0 5.0 0.00 0.00 0.00 83 1013.5
20260509020740 65 82 6.0 7.0 0.00 0.00 0.00 82 1013.3
20260509020238 65 128 3.0 5.0 0.00 0.00 0.00 81 1013.4
20260509015735 66 115 5.0 6.0 0.00 0.00 0.00 81 1013.4
20260509015234 66 97 7.0 9.0 0.00 0.00 0.00 80 1013.4
20260509014729 66 139 2.0 2.0 0.00 0.00 0.00 79 1013.4
20260509014227 67 105 7.0 8.0 0.00 0.00 0.00 78 1013.4
20260509013723 67 143 4.0 5.0 0.00 0.00 0.00 78 1013.4
20260509013219 67 149 1.0 2.0 0.00 0.00 0.00 77 1013.4
20260509012716 68 174 2.0 2.0 0.00 0.00 0.00 77 1013.4
20260509012212 68 129 5.0 6.0 0.00 0.00 0.00 76 1013.4
20260509011710 68 124 5.0 6.0 0.00 0.00 0.00 75 1013.2
20260509011208 69 116 4.0 7.0 0.00 0.00 0.00 74 1013.3
20260509010705 70 129 5.0 5.0 0.00 0.00 0.00 72 1013.4
20260509010201 70 94 3.0 3.0 0.00 0.00 0.00 73 1013.2